Regional Weather Roundup
Issued by NWS

Home | Current Version | Previous Version | Graphics & Text | Print | Product List | Glossary On
Versions: 1 2 3 4 5 6 7 8 9 10 11 12 13 14 15 16 17 18 19 20 21 22 23 24 25 26 27 28 29 30 31 32 33 34 35 36 37 38 39 40 41 42 43 44 45 46 47
000
ASUS43 KDMX 140907
RWRIA

WEATHER ROUNDUP FOR IOWA
NATIONAL WEATHER SERVICE DES MOINES IA
400 AM CDT MON JUL 14 2014

NOTE: "FAIR" INDICATES FEW OR NO CLOUDS BELOW 12,000 FEET WITH NO
SIGNIFICANT WEATHER AND/OR OBSTRUCTIONS TO VISIBILITY.

* - THESE STATIONS ARE NOT NWS STATIONS...THUS NOT UNDER NWS
QUALITY CONTROL.  THEY ALSO DO NOT REPORT WEATHER SUCH
AS PRECIPITATION OR FOG.

IAZ001>003-012>014-020>022-031>034-043>046-141000-
   NORTHWEST IOWA

CITY           SKY/WX    TMP DP  RH WIND       PRES   REMARKS
CARROLL *      CLOUDY    61  59  94 NW8       29.97S
CHEROKEE *     CLEAR     57  55  94 SW5       29.99S
DENISON *      MOCLDY    63  59  88 CALM      29.97S
LE MARS *      CLEAR     55  54  94 CALM      30.00F
ORANGE CITY *  CLEAR     55  50  82 W5        30.00S
SHELDON *      CLEAR     54  50  87 W6        29.98S
SIOUX CITY     PTCLDY    61  58  90 W3        30.00S
SPENCER        CLEAR     53  50  89 W6        29.98S
STORM LAKE *   CLEAR     57  57 100 W8        29.99F
$$

IAZ055>058-069>071-079>083-090>094-141000-
   SOUTHWEST IOWA

CITY           SKY/WX    TMP DP  RH WIND       PRES   REMARKS
ATLANTIC *     MOCLDY    66  63  88 N6        29.96F
AUDUBON *      PTCLDY    66  63  88 NW3       29.98S
CLARINDA *     CLEAR     64  64 100 CALM      29.97S FOG
COUNCIL BLFS *   N/A     68  64  88 N8        29.97F
CRESTON *      PTCLDY    68  66  94 NW5       29.96S
HARLAN  *      PTCLDY    64  61  88 N7        30.02R
LAMONI         CLEAR     69  65  86 W3        29.94S
RED OAK *      PTCLDY    70  66  88 N6        29.97S
SHENANDOAH *   CLEAR     66  64  94 CALM      29.97R
$$

IAZ047>049-059>061-072>074-084-141000-
   CENTRAL IOWA

CITY           SKY/WX    TMP DP  RH WIND       PRES   REMARKS
AMES           MOCLDY    65  62  90 N7        29.93S
ANKENY *       PTCLDY    68  63  83 VRB7      29.93R
CHARITON *     CLEAR     66  66 100 W6        29.93S
DES MOINES     PTCLDY    70  64  81 NW8       29.92S
GRINNELL*      CLEAR     64  63  94 NW5       29.92S
KNOXVILLE *    MOCLDY    68  64  88 NW7       29.91S
MARSHALLTOWN     N/A     61  59  93 NW6       29.92S
PELLA *        PTCLDY    70  68  94 W3        29.92S
PERRY *          N/A     63  63 100 CALM      29.96S
$$

IAZ004>006-015-016-023>025-035-036-141000-
   NORTH CENTRAL IOWA

CITY           SKY/WX    TMP DP  RH WIND       PRES   REMARKS
ALGONA *       CLEAR     57  54  88 W6        29.96R
CLARION *      CLEAR     55  55 100 W3        29.95S
ESTHERVILLE    CLEAR     55  51  86 W8        29.96S
FORT DODGE *   CLEAR     57  55  94 CALM      29.96S
MASON CITY     CLEAR     55  51  86 W7        29.94S
FOREST CITY *  CLEAR     54  54 100 CALM      29.94R
IOWA FALLS *     N/A     59  57  94 W3        29.94S
$$

IAZ007>011-017>019-026>030-037>042-050>054-066-141000-
   NORTHEAST IOWA

CITY           SKY/WX    TMP DP  RH WIND       PRES   REMARKS
CEDAR RAPIDS   CLOUDY    66  63  90 NW7       29.88F
CHARLES CITY * CLEAR     57  54  88 W5        29.92S
CLINTON *      MOCLDY    63  63 100 S5        29.90F
DECORAH *        N/A    N/A N/A N/A MISG        N/A
DUBUQUE        CLOUDY    63  60  90 E3        29.89F
MONTICELLO *   MOCLDY    64  63  94 CALM      29.88S
OELWEIN *      PTCLDY    61  61 100 N3        29.91F
WATERLOO       PTCLDY    61  57  87 NW3       29.90F
$$

IAZ064-065-067-068-078-141000-
   EAST CENTRAL IOWA

CITY           SKY/WX    TMP DP  RH WIND       PRES   REMARKS
DAVENPORT        N/A     68  64  87 SW5       29.89F
IOWA CITY      CLOUDY    68  66  93 W6        29.90S
MT. PLEASANT * PTCLDY    66  64  94 SW5       29.90S
MUSCATINE *    PTCLDY    68  64  88 S3        29.88F
QUAD CITIES    MOCLDY    67  64  90 CALM      29.88F
$$

IAZ062-063-075>077-085>089-095>099-141000-
   SOUTHEAST IOWA

CITY           SKY/WX    TMP DP  RH WIND       PRES   REMARKS
BURLINGTON     LGT RAIN  67  66  97 SW3       29.89F
FAIRFIELD *    CLOUDY    68  64  88 W5        29.90F
FORT MADISON * CLEAR     70  68  94 SW3       29.91S
KEOKUK *       CLEAR     68  68 100 CALM      29.90S
OSKALOOSA *      N/A     66  64  94 NW5       29.91S
CENTERVILLE *  CLEAR     66  66 100 SW5       29.94S
OTTUMWA        PTCLDY    66  64  93 W5        29.90F
WASHINGTON *   CLOUDY    68  66  94 W6        29.90S
$$

ABBREVIATIONS USED IN REMARKS
   TC - TEMPERATURES IN CELSIUS
  WCI - WIND CHILL INDEX
   HX - HEAT INDEX
  VSB - VISIBILITY
$$




USA.gov is the U.S. government's official web portal to all federal, state and local government web resources and services.